GW0795 Weather Reports


time (UTC)temp
F
wind
direction
speed
knots
gust
knots
rain 1hr
in
rain 24hr
in
rain mn
in
humidity
%
barometer
mb
20260901220010 64 198 1.7 3.5 0.00 0.00 0.00 74 1010.4
20260901215505 64 194 0.9 1.7 0.00 0.00 0.00 74 1010.4
20260901215010 65 232 0.0 1.7 0.00 0.00 0.00 73 1010.4
20260901214514 65 257 0.9 1.7 0.00 0.00 0.00 73 1010.4
20260901214009 65 155 0.9 2.6 0.00 0.00 0.00 73 1010.4
20260901213513 65 216 0.9 4.3 0.00 0.00 0.00 72 1010.4
20260901213022 66 268 0.9 4.3 0.00 0.00 0.00 72 1010.4
20260901212513 65 236 0.0 2.6 0.00 0.00 0.00 72 1010.4
20260901212001 65 220 0.9 2.6 0.00 0.00 0.00 72 1010.4
20260901211509 65 229 0.9 3.5 0.00 0.00 0.00 73 1010.4
20260901211004 65 211 0.9 3.5 0.00 0.00 0.00 72 1010.4
20260901210506 65 266 0.9 3.5 0.00 0.00 0.00 72 1010.5
20260901210006 65 131 0.9 6.1 0.00 0.00 0.00 73 1010.6
20260901205506 65 229 0.9 6.1 0.00 0.00 0.00 73 1010.6
20260901205006 65 194 0.0 2.6 0.00 0.00 0.00 74 1010.6
20260901204515 64 215 1.7 4.3 0.00 0.00 0.00 73 1010.6
20260901204010 64 182 1.7 5.2 0.00 0.00 0.00 74 1010.7
20260901203510 64 208 0.9 5.2 0.00 0.00 0.00 73 1010.7
20260901203023 65 186 1.7 5.2 0.00 0.00 0.00 73 1010.7
20260901202514 65 332 0.9 5.2 0.00 0.00 0.00 72 1010.7
20260901202012 65 195 0.9 5.2 0.00 0.00 0.00 73 1010.6
20260901201524 65 248 0.9 4.3 0.00 0.00 0.00 73 1010.7
20260901201012 64 206 0.9 3.5 0.00 0.00 0.00 73 1010.7
20260901200506 64 158 0.9 4.3 0.00 0.00 0.00 73 1010.8
20260901200016 64 188 1.7 4.3 0.00 0.00 0.00 73 1010.7
20260901195506 65 190 0.9 2.6 0.00 0.00 0.00 72 1010.8
20260901195007 65 205 0.9 3.5 0.00 0.00 0.00 72 1010.7
20260901194508 66 177 0.9 3.5 0.00 0.00 0.00 71 1010.7
20260901194009 66 221 0.0 3.5 0.00 0.00 0.00 70 1010.7
20260901193510 66 200 0.0 3.5 0.00 0.00 0.00 71 1010.7
20260901193016 66 205 0.0 2.6 0.00 0.00 0.00 71 1010.7
20260901192514 66 238 0.0 6.1 0.00 0.00 0.00 70 1010.7
20260901192014 65 234 0.9 6.1 0.00 0.00 0.00 72 1010.7
20260901191526 66 215 0.9 4.3 0.00 0.00 0.00 72 1010.7
20260901191021 65 215 0.0 4.3 0.00 0.00 0.00 73 1010.7
20260901190514 65 225 0.9 4.3 0.00 0.00 0.00 73 1010.8
20260901190033 65 309 0.9 4.3 0.00 0.00 0.00 73 1010.8
20260901185516 65 206 0.9 3.5 0.00 0.00 0.00 74 1010.9
20260901185005 64 214 0.9 4.3 0.00 0.00 0.00 74 1010.9
20260901184508 64 194 2.6 4.3 0.00 0.00 0.00 74 1011.0
20260901184008 64 213 1.7 5.2 0.00 0.00 0.00 74 1010.9
20260901183508 64 197 0.9 7.8 0.00 0.00 0.00 74 1010.9
20260901183032 64 158 2.6 7.8 0.00 0.00 0.00 73 1010.9
20260901182508 65 202 1.7 7.0 0.00 0.00 0.00 73 1010.8
20260901182011 64 200 1.7 7.0 0.00 0.00 0.00 75 1010.8
20260901181520 64 171 1.7 4.3 0.00 0.00 0.00 73 1010.8
20260901181011 64 220 0.9 4.3 0.00 0.00 0.00 75 1010.8
20260901180512 63 140 0.9 3.5 0.00 0.00 0.00 76 1010.8
20260901180028 62 203 1.7 3.5 0.00 0.00 0.00 77 1010.8
20260901175519 62 184 1.7 4.3 0.00 0.00 0.00 78 1010.7
20260901175013 62 210 1.7 4.3 0.00 0.00 0.00 77 1010.7
20260901174530 62 117 1.7 3.5 0.00 0.00 0.00 77 1010.7
20260901174007 63 224 0.9 7.0 0.00 0.00 0.00 76 1010.6
20260901173507 63 124 1.7 7.0 0.00 0.00 0.00 77 1010.5
20260901173008 63 149 1.7 6.1 0.00 0.00 0.00 75 1010.4
20260901172511 63 148 1.7 6.1 0.00 0.00 0.00 76 1010.4
20260901172008 63 191 1.7 4.3 0.00 0.00 0.00 77 1010.4
20260901171518 62 227 1.7 4.3 0.00 0.00 0.00 79 1010.5
20260901171010 61 203 1.7 4.3 0.00 0.00 0.00 79 1010.4
20260901170514 61 195 0.9 3.5 0.00 0.00 0.00 80 1010.6
20260901170023 61 127 0.9 3.5 0.00 0.00 0.00 81 1010.5
20260901165515 61 238 0.9 2.6 0.00 0.00 0.00 81 1010.6
20260901165015 60 148 1.7 6.1 0.00 0.00 0.00 82 1010.6
20260901164531 60 206 1.7 6.1 0.00 0.00 0.00 82 1010.6
20260901164014 60 188 1.7 6.1 0.00 0.00 0.00 83 1010.6
20260901163515 60 193 1.7 6.1 0.00 0.00 0.00 83 1010.7
20260901163031 60 190 0.0 3.5 0.00 0.00 0.00 84 1010.7
20260901162520 59 194 0.0 3.5 0.00 0.00 0.00 84 1010.7
20260901162010 59 144 0.9 3.5 0.00 0.00 0.00 84 1010.7
20260901161515 59 185 0.0 4.3 0.00 0.00 0.00 85 1010.7
20260901161012 59 122 1.7 4.3 0.00 0.00 0.00 85 1010.7
20260901160509 59 215 0.9 5.2 0.00 0.00 0.00 85 1010.7
20260901160021 59 177 0.9 5.2 0.00 0.00 0.00 85 1010.6
20260901155513 59 162 0.9 1.7 0.00 0.00 0.00 86 1010.7
20260901155018 59 203 0.0 1.7 0.00 0.00 0.00 86 1010.7
20260901154526 58 227 0.0 0.0 0.00 0.00 0.00 87 1010.7
20260901154013 58 148 0.0 1.7 0.00 0.00 0.00 87 1010.8
20260901153518 58 214 0.0 1.7 0.00 0.00 0.00 87 1010.9
20260901153036 58 181 0.0 1.7 0.00 0.00 0.00 88 1010.9
20260901152508 58 185 0.0 1.7 0.00 0.00 0.00 88 1010.9
20260901152010 58 192 0.9 2.6 0.00 0.00 0.00 87 1010.8
20260901151513 58 186 0.0 2.6 0.00 0.00 0.00 88 1010.8
20260901151008 58 187 0.0 5.2 0.00 0.00 0.00 88 1010.9
20260901150512 58 171 0.9 5.2 0.00 0.00 0.00 88 1010.8
20260901150019 58 214 0.0 3.5 0.00 0.00 0.00 88 1010.8
20260901145510 58 180 0.9 3.5 0.00 0.00 0.00 88 1010.7
20260901145001 57 196 0.9 3.5 0.00 0.00 0.00 88 1010.7
20260901144507 57 210 0.9 2.6 0.00 0.00 0.00 88 1010.7
20260901144004 57 221 0.9 4.3 0.00 0.00 0.00 88 1010.6
20260901143503 57 183 1.7 4.3 0.00 0.00 0.00 89 1010.6
20260901143005 57 188 0.0 1.7 0.00 0.00 0.00 89 1010.6
20260901142508 57 186 0.0 2.6 0.00 0.00 0.00 89 1010.6
20260901142004 57 185 0.9 2.6 0.00 0.00 0.00 89 1010.6
20260901141512 57 194 0.9 2.6 0.00 0.00 0.00 89 1010.5
20260901141008 57 205 0.9 1.7 0.00 0.00 0.00 89 1010.5
20260901140508 57 227 0.0 2.6 0.00 0.00 0.00 90 1010.4
20260901140017 57 229 0.0 2.6 0.00 0.00 0.00 90 1010.3
20260901135508 56 232 0.0 2.6 0.00 0.00 0.00 90 1010.3
20260901135012 56 215 0.0 3.5 0.00 0.00 0.00 90 1010.3
20260901134522 56 140 0.0 3.5 0.00 0.00 0.00 90 1010.3
20260901134011 56 218 0.9 3.5 0.00 0.00 0.00 90 1010.3
20260901133503 56 205 0.0 0.0 0.00 0.00 0.00 89 1010.3
20260901133007 56 213 0.0 3.5 0.00 0.00 0.00 89 1010.3
20260901132504 56 210 0.0 3.5 0.00 0.00 0.00 89 1010.3
20260901132004 56 202 0.0 2.6 0.00 0.00 0.00 89 1010.3
20260901131509 56 196 0.0 0.9 0.00 0.00 0.00 89 1010.3
20260901131004 56 186 0.0 0.0 0.00 0.00 0.00 89 1010.3
20260901130508 56 215 0.0 0.0 0.00 0.00 0.00 88 1010.2
20260901130011 56 215 0.0 0.0 0.00 0.00 0.00 88 1010.2
20260901125507 55 215 0.0 1.7 0.00 0.00 0.00 88 1010.1
20260901125009 55 224 0.0 1.7 0.00 0.00 0.00 88 1010.1
20260901124520 55 164 0.0 0.0 0.00 0.00 0.00 87 1010.1
20260901124012 55 5 0.0 0.0 0.00 0.00 0.00 87 1010.1
20260901123514 55 5 0.0 0.0 0.00 0.00 0.00 86 1010.0
20260901123024 55 5 0.0 0.0 0.00 0.00 0.00 86 1010.0
20260901122516 55 5 0.0 0.0 0.00 0.00 0.00 86 1009.9
20260901122003 55 5 0.0 0.0 0.00 0.00 0.00 86 1010.0
20260901121507 55 5 0.0 0.0 0.00 0.00 0.00 86 1010.0
20260901121006 54 5 0.0 0.0 0.00 0.00 0.00 86 1009.9
20260901120507 54 5 0.0 0.0 0.00 0.00 0.00 86 1009.9
20260901120015 54 5 0.0 0.0 0.00 0.00 0.00 86 1009.9
20260901115508 54 9 0.0 0.0 0.00 0.00 0.00 86 1009.8
20260901115013 54 5 0.0 0.0 0.00 0.00 0.00 86 1009.8
20260901114515 54 5 0.0 0.0 0.00 0.00 0.00 86 1009.7
20260901114012 54 5 0.0 0.0 0.00 0.00 0.00 86 1009.7
20260901113510 54 5 0.0 0.0 0.00 0.00 0.00 86 1009.6
20260901113025 54 5 0.0 0.0 0.00 0.00 0.00 87 1009.6
20260901112511 54 5 0.0 0.0 0.00 0.00 0.00 86 1009.6
20260901112015 55 5 0.0 0.0 0.00 0.00 0.00 86 1009.7
20260901111529 54 5 0.0 0.0 0.00 0.00 0.00 86 1009.6
20260901111019 55 5 0.0 0.0 0.00 0.00 0.00 86 1009.6
20260901110503 55 5 0.0 0.0 0.00 0.00 0.00 85 1009.6
20260901110010 55 5 0.0 0.0 0.00 0.00 0.00 85 1009.6
20260901105504 55 5 0.0 0.0 0.00 0.00 0.00 86 1009.6
20260901105010 55 5 0.0 0.0 0.00 0.00 0.00 86 1009.6
20260901104514 55 5 0.0 0.0 0.00 0.00 0.00 86 1009.6
20260901104008 55 5 0.0 0.0 0.00 0.00 0.00 86 1009.6
20260901103511 55 5 0.0 0.0 0.00 0.00 0.00 86 1009.6
20260901103017 55 5 0.0 0.0 0.00 0.00 0.00 86 1009.5
20260901102514 55 5 0.0 0.0 0.00 0.00 0.00 85 1009.5
20260901102014 56 5 0.0 0.0 0.00 0.00 0.00 85 1009.5
20260901101527 55 5 0.0 0.0 0.00 0.00 0.00 86 1009.5
20260901101018 55 5 0.0 0.0 0.00 0.00 0.00 86 1009.5
20260901100514 55 5 0.0 0.0 0.00 0.00 0.00 86 1009.5
20260901100027 56 5 0.0 0.0 0.00 0.00 0.00 85 1009.3
20260901095515 56 5 0.0 0.0 0.00 0.00 0.00 86 1009.3
20260901095014 55 5 0.0 0.0 0.00 0.00 0.00 85 1009.3
20260901094521 56 5 0.0 0.0 0.00 0.00 0.00 85 1009.3
20260901094007 56 5 0.0 0.0 0.00 0.00 0.00 84 1009.2
20260901093507 56 5 0.0 0.0 0.00 0.00 0.00 84 1009.2
20260901093018 56 5 0.0 0.0 0.00 0.00 0.00 84 1009.3
20260901092512 56 5 0.0 0.0 0.00 0.00 0.00 84 1009.3
20260901092015 57 5 0.0 0.0 0.00 0.00 0.00 84 1009.2
20260901091530 57 5 0.0 0.0 0.00 0.00 0.00 83 1009.2
20260901091011 57 5 0.0 0.0 0.00 0.00 0.00 83 1009.2
20260901090511 57 5 0.0 0.0 0.00 0.00 0.00 82 1009.2
20260901090027 57 5 0.0 0.0 0.00 0.00 0.00 83 1009.2
20260901085519 57 5 0.0 0.0 0.00 0.00 0.00 82 1009.2
20260901085015 57 5 0.0 0.0 0.00 0.00 0.00 81 1009.2
20260901084532 58 5 0.0 0.0 0.00 0.00 0.00 81 1009.1
20260901084020 58 5 0.0 0.0 0.00 0.00 0.00 81 1009.0
20260901083519 58 5 0.0 0.0 0.00 0.00 0.00 80 1009.1
20260901083014 58 5 0.0 0.0 0.00 0.00 0.00 80 1009.0
20260901082511 59 5 0.0 0.0 0.00 0.00 0.00 79 1009.1
20260901082011 59 5 0.0 0.0 0.00 0.00 0.00 79 1009.0
20260901081518 59 5 0.0 0.0 0.00 0.00 0.00 79 1009.0
20260901081011 59 5 0.0 0.0 0.00 0.00 0.00 79 1009.0
20260901080514 60 5 0.0 0.0 0.00 0.00 0.00 78 1008.9
20260901080025 60 5 0.0 0.0 0.00 0.00 0.00 76 1008.9
20260901075504 61 5 0.0 0.0 0.00 0.00 0.00 75 1008.9
20260901075004 61 5 0.0 0.0 0.00 0.00 0.00 75 1008.9
20260901074509 61 30 0.0 0.0 0.00 0.00 0.00 75 1008.8
20260901074003 61 30 0.0 0.0 0.00 0.00 0.00 75 1008.8
20260901073507 61 30 0.0 0.0 0.00 0.00 0.00 75 1008.8
20260901073019 61 30 0.0 1.7 0.00 0.00 0.00 75 1008.8
20260901072510 61 30 0.0 1.7 0.00 0.00 0.00 75 1008.9
20260901072011 62 34 0.0 1.7 0.00 0.00 0.00 75 1008.9
20260901071515 62 44 0.0 0.0 0.00 0.00 0.00 74 1008.9
20260901071014 62 46 0.0 0.9 0.00 0.00 0.00 74 1008.8
20260901070512 61 62 0.9 0.9 0.00 0.00 0.00 74 1008.8
20260901070007 61 69 0.0 1.7 0.00 0.00 0.00 74 1008.8
20260901065506 61 69 0.0 1.7 0.00 0.00 0.00 74 1008.8
20260901065004 62 69 0.0 1.7 0.00 0.00 0.00 74 1008.8
20260901064509 62 69 0.0 0.9 0.00 0.00 0.00 74 1008.7
20260901064004 62 11 0.0 0.0 0.00 0.00 0.00 74 1008.8
20260901063503 62 17 0.0 0.0 0.00 0.00 0.00 73 1008.8
20260901063007 62 19 0.0 0.0 0.00 0.00 0.00 73 1008.9
20260901062508 62 19 0.0 0.0 0.00 0.00 0.00 73 1008.8
20260901062008 63 19 0.0 0.0 0.00 0.00 0.00 73 1008.8
20260901061514 63 15 0.0 0.0 0.00 0.00 0.00 72 1008.9
20260901061012 63 15 0.0 0.0 0.00 0.00 0.00 72 1008.9
20260901060509 63 18 0.0 1.7 0.00 0.00 0.00 72 1008.9
20260901060022 63 5 0.0 1.7 0.00 0.00 0.00 71 1009.0
20260901055513 63 360 0.0 1.7 0.00 0.00 0.00 71 1008.9
20260901055012 63 352 0.9 2.6 0.00 0.00 0.00 70 1009.0
20260901054504 63 25 0.9 2.6 0.00 0.00 0.00 70 1009.0
20260901054004 63 30 0.0 1.7 0.00 0.00 0.00 70 1009.0
20260901053504 63 28 0.0 2.6 0.00 0.00 0.00 70 1009.0
20260901053012 64 53 0.9 2.6 0.00 0.00 0.00 70 1009.1
20260901052505 64 46 0.0 1.7 0.00 0.00 0.00 69 1009.1
20260901052007 64 49 0.0 2.6 0.00 0.00 0.00 69 1009.1
20260901051513 64 5 0.9 2.6 0.00 0.00 0.00 69 1009.1
20260901051008 64 345 0.0 2.6 0.00 0.00 0.00 68 1009.2
20260901050507 64 351 0.9 2.6 0.00 0.00 0.00 68 1009.2
20260901050016 64 352 0.0 2.6 0.00 0.00 0.00 68 1009.1
20260901045513 64 49 0.9 1.7 0.00 0.00 0.00 68 1009.1
20260901045012 64 5 0.9 1.7 0.00 0.00 0.00 68 1009.1
20260901044523 64 11 0.9 3.5 0.00 0.00 0.00 68 1009.2
20260901044012 64 343 0.9 3.5 0.00 0.00 0.00 68 1009.2
20260901043516 64 342 0.9 2.6 0.00 0.00 0.00 68 1009.2
20260901043006 64 346 0.0 0.0 0.00 0.00 0.00 68 1009.1
20260901042504 64 346 0.0 1.7 0.00 0.00 0.00 68 1009.1
20260901042005 64 346 0.0 1.7 0.00 0.00 0.00 68 1009.2
20260901041509 64 23 0.0 1.7 0.00 0.00 0.00 68 1009.1
20260901041010 64 5 0.0 1.7 0.00 0.00 0.00 68 1009.1
20260901040509 64 5 0.0 1.7 0.00 0.00 0.00 68 1009.1
20260901040019 65 5 0.0 1.7 0.00 0.00 0.00 67 1008.9
20260901035515 65 5 0.0 1.7 0.00 0.00 0.00 66 1008.8
20260901035013 65 5 0.0 2.6 0.00 0.00 0.00 65 1008.7
20260901034525 66 5 0.9 2.6 0.00 0.00 0.00 65 1008.6
20260901034014 66 26 0.9 3.5 0.00 0.00 0.00 65 1008.5
20260901033511 66 339 0.0 3.5 0.00 0.00 0.00 64 1008.5
20260901033043 66 352 1.7 3.5 0.00 0.00 0.00 64 1008.4
20260901032514 66 21 0.9 1.7 0.00 0.00 0.00 64 1008.4
20260901032016 66 360 0.0 1.7 0.00 0.00 0.00 64 1008.3
20260901031512 66 360 0.0 1.7 0.00 0.00 0.00 63 1008.3
20260901031007 67 360 0.0 2.6 0.00 0.00 0.00 63 1008.3
20260901030509 67 317 0.0 3.5 0.00 0.00 0.00 63 1008.3
20260901030014 67 312 1.7 3.5 0.00 0.00 0.00 62 1008.4
20260901025507 67 5 0.9 3.5 0.00 0.00 0.00 62 1008.3
20260901025011 68 30 0.9 4.3 0.00 0.00 0.00 61 1008.3
20260901024525 68 62 0.0 4.3 0.00 0.00 0.00 60 1008.4
20260901024012 68 334 1.7 4.3 0.00 0.00 0.00 59 1008.4
20260901023514 68 44 0.9 7.0 0.00 0.00 0.00 58 1008.4
20260901023032 69 42 1.7 7.0 0.00 0.00 0.00 58 1008.5
20260901022511 69 23 1.7 3.5 0.00 0.00 0.00 57 1008.6
20260901022018 69 26 1.7 3.5 0.00 0.00 0.00 56 1008.5
20260901021527 69 9 0.9 2.6 0.00 0.00 0.00 58 1008.5
20260901021016 69 332 0.9 2.6 0.00 0.00 0.00 59 1008.6
20260901020519 69 307 0.9 2.6 0.00 0.00 0.00 59 1008.6
20260901020008 69 309 0.0 5.2 0.00 0.00 0.00 59 1008.7
20260901015508 69 9 1.7 5.2 0.00 0.00 0.00 58 1008.7
20260901015007 69 320 1.7 4.3 0.00 0.00 0.00 59 1008.7
20260901014513 70 352 1.7 4.3 0.00 0.00 0.00 60 1008.6
20260901014010 70 17 0.9 4.3 0.00 0.00 0.00 60 1008.5
20260901013510 70 349 0.0 4.3 0.00 0.00 0.00 60 1008.5
20260901013018 70 304 0.9 6.1 0.00 0.00 0.00 59 1008.6
20260901012514 70 311 1.7 6.1 0.00 0.00 0.00 59 1008.6
20260901012015 70 347 1.7 6.1 0.00 0.00 0.00 59 1008.6
20260901011524 70 350 1.7 7.0 0.00 0.00 0.00 59 1008.6
20260901011016 70 285 1.7 7.0 0.00 0.00 0.00 58 1008.5
20260901010516 71 29 1.7 7.0 0.00 0.00 0.00 58 1008.6
20260901010037 71 311 1.7 6.1 0.00 0.00 0.00 58 1008.6
20260901005514 71 321 1.7 6.1 0.00 0.00 0.00 57 1008.6
20260901005019 71 314 0.9 7.0 0.00 0.00 0.00 56 1008.6
20260901004516 72 22 1.7 7.0 0.00 0.00 0.00 56 1008.6
20260901004013 72 310 2.6 7.0 0.00 0.00 0.00 55 1008.7
20260901003508 73 315 1.7 7.0 0.00 0.00 0.00 54 1008.6
20260901003017 73 300 2.6 7.8 0.00 0.00 0.00 55 1008.6
20260901002508 73 348 1.7 7.8 0.00 0.00 0.00 55 1008.7
20260901002005 73 317 1.7 5.2 0.00 0.00 0.00 54 1008.7
20260901001510 73 352 0.9 5.2 0.00 0.00 0.00 54 1008.8
20260901001003 74 279 1.7 4.3 0.00 0.00 0.00 53 1008.8
20260901000503 73 351 1.7 4.3 0.00 0.00 0.00 53 1008.9
20260901000006 74 360 0.9 3.5 0.00 0.00 0.00 51 1008.8
20260831235505 74 10 0.9 7.0 0.00 0.00 0.00 51 1008.9
20260831235006 74 34 2.6 7.0 0.00 0.00 0.00 50 1008.9
20260831234526 74 315 3.5 7.0 0.00 0.00 0.00 50 1009.0
20260831234008 74 352 1.7 3.5 0.00 0.00 0.00 51 1009.0
20260831233512 74 53 1.7 3.5 0.00 0.00 0.00 51 1009.1
20260831233017 74 39 0.9 3.5 0.00 0.00 0.00 51 1009.1
20260831232512 74 288 1.7 7.8 0.00 0.00 0.00 49 1009.1
20260831232012 74 300 2.6 7.8 0.00 0.00 0.00 49 1009.1
20260831231503 74 348 2.6 7.0 0.00 0.00 0.00 47 1009.2
20260831231003 75 321 3.5 7.0 0.00 0.00 0.00 48 1009.2
20260831230506 75 360 1.7 8.7 0.00 0.00 0.00 48 1009.2
20260831230004 74 317 2.6 8.7 0.00 0.00 0.00 48 1009.2
20260831225503 74 263 4.3 8.7 0.00 0.00 0.00 49 1009.3
20260831225006 74 309 2.6 7.8 0.00 0.00 0.00 49 1009.4
20260831224508 74 347 2.6 7.8 0.00 0.00 0.00 50 1009.4
20260831224008 73 9 0.9 9.6 0.00 0.00 0.00 51 1009.4
20260831223508 73 18 3.5 8.7 0.00 0.00 0.00 49 1009.5
20260831223012 74 292 3.5 7.8 0.00 0.00 0.00 49 1009.5
20260831222510 73 261 3.5 7.8 0.00 0.00 0.00 53 1009.6
20260831222015 73 5 3.5 7.8 0.00 0.00 0.00 52 1009.6
20260831221525 73 327 3.5 8.7 0.00 0.00 0.00 54 1009.7
20260831221014 73 347 3.5 8.7 0.00 0.00 0.00 52 1009.8
20260831220514 73 311 2.6 7.0 0.00 0.00 0.00 53 1010.0